New Paris, IN

6:37 AM EST on February 08, 2016 (GMT -0500)
Goshen Municipal

Weather History for KGSH - June, 2014

Change the Weather History Date:

Thursday, June 5, 2014

  Actual Average Record
Temperature  
Mean Temperature 62 °F -  
Max Temperature 75 °F 76 °F 95 °F (2005)
Min Temperature 48 °F 55 °F 37 °F (1990)
Degree Days  
Heating Degree Days 4    
Growing Degree Days 12 (Base 50)    
Moisture  
Dew Point 50 °F    
Average Humidity 72    
Maximum Humidity 97    
Minimum Humidity 34    
Precipitation  
Precipitation 0.00 in - - ()
Sea Level Pressure  
Sea Level Pressure 29.93 in    
Wind  
Wind Speed 4 mph (North)    
Max Wind Speed 12 mph    
Max Gust Speed -    
Visibility 6 miles    
Events Fog    
Averages and records for this station are not official NWS values.
T = Trace of Precipitation, MM = Missing Value Source: NWS Daily Summary

Daily Weather History Graph

Daily Weather History Graph

Search for Another Location

Airport or City:

Trip Planner

Search our weather history database for the weather conditions in past years. The results will help you decide how hot, cold, wet, or windy it might be!

Date:

Astronomy

Jun. 05, 2014 Rise Set
Actual Time 6:10 AM EDT 9:13 PM EDT
Civil Twilight 5:36 AM EDT 9:47 PM EDT
Nautical Twilight 4:53 AM EDT 10:30 PM EDT
Astronomical Twilight 4:03 AM EDT 11:20 PM EDT
Moon 1:29 PM EDT (6/5) 1:37 AM EDT (6/5)
Length of Visible Light 16h 10m
Length of Day
15h 03m
Waxing Crescent, 48% of the Moon is Illuminated
Jun 5
Waxing Crescent
Jun 5
First Quarter
Jun 13
Full
Jun 19
Last Quarter
Jun 27
New

Hourly Weather History & Observations

Time (EDT) Temp. Dew Point Humidity Pressure Visibility Wind Dir Wind Speed Gust Speed Precip Events Conditions
12:53 AM 55.9 °F 54.0 °F 93% 29.89 in 6.0 mi NW 4.6 mph - N/A   Clear
1:44 AM 55.9 °F 54.0 °F 93% 29.89 in 1.8 mi NW 3.5 mph - N/A   Clear
1:53 AM 55.9 °F 54.0 °F 93% 29.90 in 0.8 mi Calm Calm - N/A   Clear
2:01 AM 55.0 °F 54.0 °F 96% 29.89 in 0.5 mi Calm Calm - N/A Fog Fog
2:53 AM 51.1 °F 50.0 °F 96% 29.90 in 0.2 mi Calm Calm - N/A Fog Fog
3:25 AM 52.0 °F 51.1 °F 97% 29.91 in 0.2 mi NW 3.5 mph - N/A Fog Fog
3:49 AM 51.8 °F 50.0 °F 94% 29.92 in 0.2 mi West 3.5 mph - N/A Fog Fog
3:53 AM 52.0 °F 51.1 °F 97% 29.92 in 0.8 mi West 3.5 mph - N/A   Mist
3:56 AM 52.0 °F 51.1 °F 97% 29.92 in 2.5 mi West 4.6 mph - N/A   Partly Cloudy
4:03 AM 50.0 °F 48.9 °F 96% 29.92 in 4.0 mi WNW 4.6 mph - N/A   Partly Cloudy
4:53 AM 51.1 °F 48.9 °F 92% 29.93 in 3.0 mi Calm Calm - N/A   Clear
4:58 AM 50.0 °F 48.0 °F 93% 29.92 in 1.8 mi Calm Calm - N/A   Clear
5:10 AM 52.0 °F 50.0 °F 93% 29.92 in 3.0 mi NNW 4.6 mph - N/A   Clear
5:53 AM 48.0 °F 46.9 °F 96% 29.93 in 6.0 mi North 5.8 mph - N/A   Clear
6:53 AM 50.0 °F 48.9 °F 96% 29.95 in 8.0 mi North 3.5 mph - N/A   Clear
7:53 AM 57.9 °F 52.0 °F 81% 29.96 in 10.0 mi ENE 6.9 mph - N/A   Clear
8:53 AM 61.0 °F 50.0 °F 67% 29.96 in 10.0 mi ENE 10.4 mph - N/A   Clear
9:53 AM 64.0 °F 50.0 °F 60% 29.94 in 10.0 mi East 11.5 mph - N/A   Clear
10:53 AM 66.0 °F 48.9 °F 54% 29.99 in 10.0 mi NE 4.6 mph - N/A   Clear
11:53 AM 69.1 °F 48.9 °F 49% 29.99 in 10.0 mi Calm Calm - N/A   Clear
12:53 PM 70.0 °F 48.0 °F 46% 29.97 in 10.0 mi Variable 6.9 mph - N/A   Clear
1:53 PM 72.0 °F 46.0 °F 40% 29.96 in 10.0 mi Variable 3.5 mph - N/A   Clear
2:53 PM 73.9 °F 45.0 °F 35% 29.96 in 10.0 mi ENE 3.5 mph - N/A   Clear
3:53 PM 75.0 °F 46.9 °F 37% 29.93 in 10.0 mi Variable 3.5 mph - N/A   Clear
4:53 PM 73.9 °F 46.9 °F 38% 29.91 in 10.0 mi NE 3.5 mph - N/A   Clear
5:53 PM 75.0 °F 45.0 °F 34% 29.92 in 10.0 mi North 3.5 mph - N/A   Clear
6:53 PM 75.0 °F 46.0 °F 36% 29.92 in 10.0 mi NE 4.6 mph - N/A   Clear
7:53 PM 75.0 °F 50.0 °F 41% 29.92 in 10.0 mi ENE 3.5 mph - N/A   Clear
9:53 PM 64.9 °F 51.1 °F 61% 29.96 in 10.0 mi NNW 4.6 mph - N/A   Clear
10:53 PM 60.1 °F 50.0 °F 69% 29.97 in 10.0 mi North 6.9 mph - N/A   Clear
11:53 PM 59.0 °F 50.0 °F 72% 29.97 in 10.0 mi Calm Calm - N/A   Clear